Flag Weather past 2 weeks in Amman, Jordan

Now
55 °F

Passing clouds.


Feels Like: 51 °F
Forecast: 47 / 55 °F
Wind: 16 mph from Northwest

Location: Amman Airport

Current Time: Nov 22, 2014 at 2:21:59 AM

Latest Report: Nov 22, 2014 at 2:00 AM


Visibility: 3 mi

Pressure: 29.98 "Hg

Humidity: 82%

Dew point: 50 °F

Location of AmmanLocation

Historic Weather in Amman — Graph

°F

Amman temperature yesterday

Maximum temperature yesterday: 64 °F (at 1:00 PM)
Minimum temperature yesterday: 54 °F (at 3:00 AM)
Average temperature yesterday: 58 °F

Past Weeks' High & Low Weather Summary

 TemperatureHumidityPressure
High82 °F (Nov 10, 6:00 PM)94% (Nov 17, 5:00 AM)30.30 "Hg (Nov 17, 5:00 AM)
Low46 °F (Nov 7, 6:00 AM)10% (Nov 8, 2:00 PM)29.92 "Hg (Nov 16, 1:00 PM)
Average60 °F43%30.09 "Hg
* Reported Nov 7 1:00 AM — Nov 22 1:00 AM, Amman, Weather by CustomWeather, © 2014

Note: Actual official high and low records may vary slightly from our data, if they occured in-between our weather recording intervals... More about our weather records

Advertising

Amman weather history for previous 24 hours

 ConditionsComfort  
Time TempWeatherWind HumidityBarometerVisibility
1:00 AM
Nov 22
55 °FPassing clouds.16 mph82%29.98 "Hg3 mi
12:00 AM55 °FPassing clouds.13 mph82%29.98 "Hg3 mi
11:00 PM
Nov 21
55 °FPassing clouds.8 mph82%29.98 "Hg3 mi
10:00 PM57 °FPassing clouds.8 mph82%29.98 "Hg2 mi
9:00 PM55 °FPassing clouds.10 mph88%29.98 "Hg2 mi
8:00 PM55 °FPassing clouds.12 mph88%29.98 "Hg2 mi
7:00 PM59 °FRain. Passing clouds.12 mph77%29.95 "Hg2 mi
6:00 PM59 °FPassing clouds.12 mph68%29.95 "Hg3 mi
5:00 PM61 °FPassing clouds.18 mph72%29.95 "Hg3 mi
4:00 PM63 °FScattered clouds.16 mph68%29.92 "Hg2 mi
3:00 PM63 °FScattered clouds.15 mph68%29.92 "Hg3 mi
2:00 PM63 °FScattered clouds.14 mph68%29.95 "Hg3 mi
1:00 PM64 °FScattered clouds.14 mph60%29.98 "Hg4 mi
12:00 PM63 °FClear.14 mph56%29.98 "Hg4 mi
11:00 AM63 °FClear.14 mph56%30.01 "Hg4 mi
10:00 AM63 °FClear.12 mph52%30.01 "Hg4 mi
9:00 AM61 °FHaze.12 mph55%30.01 "Hg3 mi
8:00 AM57 °FHaze.8 mph63%30.01 "Hg2 mi
7:00 AM55 °FHaze.5 mph67%29.98 "Hg2 mi
6:00 AM55 °FHaze.No wind67%29.98 "Hg2 mi
5:00 AM54 °FHaze.No wind67%29.98 "Hg2 mi
4:00 AM55 °FHaze.No wind63%29.98 "Hg2 mi
3:00 AM54 °FHaze.No wind63%30.01 "Hg2 mi
2:00 AM55 °FHaze.No wind67%30.01 "Hg2 mi
Weather by CustomWeather, © 2014

See weather overviewHow to use our weather pages